Regional Weather Roundup
Issued by NWS

Home | Current Version | Previous Version | Graphics & Text | Print | Product List | Glossary On
Versions: 1 2 3 4 5 6 7 8 9 10 11 12 13 14 15 16 17 18 19 20 21 22 23 24 25 26 27 28 29 30 31 32 33 34 35 36 37 38 39 40 41 42 43 44 45 46 47 48 49 50
000
ASUS43 KMPX 230310
RWRMN
WEATHER ROUNDUP FOR MINNESOTA
NATIONAL WEATHER SERVICE TWIN CITIES/CHANHASSEN MN
900 PM CST MON JAN 22 2018


NOTE: "FAIR" INDICATES FEW OR NO CLOUDS BELOW 12,000 FEET WITH NO
SIGNIFICANT WEATHER AND/OR OBSTRUCTIONS TO VISIBILITY. N/A MEANS
CURRENT SKY AND/OR WEATHER CONDITIONS ARE NOT AVAILABLE.

MNZ060>063-068>070-230400-
   Twin Cities Metro

CITY           SKY/WX    TMP DP  RH WIND       PRES   REMARKS
TWIN CITIES    LGT SNOW  27  26  96 N15G23    29.77R VSB 1   WCI  15
ST PAUL        LGT SNOW  27  25  92 N14G23    29.78R FOG     WCI  16
CRYSTAL        LGT SNOW  28  21  75 N14G25    29.77R WCI  17
BLAINE         LGT SNOW  28  27  93 N23G31    29.77R BLWGSNOWWCI  14
LAKEVILLE      CLOUDY    25  25 100 N14       29.74R WCI  13
EDEN PRAIRIE   LGT SNOW  28  24  85 N14G29    29.75R FOG     WCI  17
SOUTH ST PAUL  LGT SNOW  28  26  93 N12G17    29.76R WCI  17
LAKE ELMO        N/A     28  27  93 N13G25    29.76R WCI  18
$$
MNZ001>005-007-008-013>017-022>024-027-028-230400-
   Northwest Minnesota

CITY           SKY/WX    TMP DP  RH WIND       PRES   REMARKS
BEMIDJI        CLOUDY    22  18  86 N6        29.99S WCI  14
HALLOCK        CLOUDY    25  18  74 E3        30.09S
ROSEAU         CLOUDY    21  16  79 NE9       30.07S WCI  11
WARROAD        CLOUDY    19  16  86 N7        30.07S WCI  10
THIEF RVR FALL CLOUDY    21  17  84 N12       30.05S WCI   9
CROOKSTON      CLOUDY    23  19  86 N8        30.07S WCI  14
FOSSTON        CLOUDY    19  18  93 N8        30.02S WCI   9
DETROIT LAKES  CLOUDY    25  21  86 NE9       29.98F WCI  15
MOORHEAD       CLOUDY    25  19  80 N10       30.03S WCI  15
PARK RAPIDS    CLOUDY    23  17  78 NE13G25   29.95S WCI  11
MAHNOMEN       CLOUDY    23  18  81 NE10      30.00R WCI  13
$$
MNZ006-009>011-018-025>026-230400-
   North Central Minnesota

CITY           SKY/WX    TMP DP  RH WIND       PRES   REMARKS
BAUDETTE       CLOUDY    19  14  81 N9        30.03F WCI   8
FLAG ISLAND    CLOUDY    18  12  79 N8        30.06F WCI   7
INTL FALLS     CLOUDY    16  10  77 NE6       30.02F WCI   7
WASKISH        CLOUDY    19  18  93 N6        30.01F WCI  11
BIG FORK       CLOUDY    19  18  93 N5        29.98R WCI  13
LONGVILLE      CLOUDY    23  18  80 N6        29.95S WCI  16
GRAND RAPIDS   CLOUDY    21  16  81 N13       29.95F WCI   9
CRANE LAKE     FAIR      12  10  92 N6        30.02S WCI   3
ORR            FAIR      16  10  79 NW5       29.95S WCI   9
COOK           FAIR      16  12  86 CALM      29.96S
WALKER         CLOUDY    22  17  81 N9        29.97S WCI  12
$$
MNZ012-019>021-037-230400-
   Northeast Minnesota

CITY           SKY/WX    TMP DP  RH WIND       PRES   REMARKS
DULUTH         CLOUDY    21  15  78 N10       29.85S WCI  10
HIBBING        FAIR      18  13  80 N10       29.92S WCI   6
EVELETH        FAIR      35  29  77 N8        29.93S WCI  29
DULUTH HARBOR  CLOUDY    27  21  80 N22       29.88F WCI  12
TWO HARBORS    CLOUDY    23  18  80 N8        29.85S WCI  14
SILVER BAY     CLOUDY    19  14  79 N7        29.85F WCI  10
GRAND MARAIS     N/A     17   7  64 N23G41    29.86F WCI  -1
G MARAIS ARPRT FAIR       7   0  72 N13G18    29.84F WCI  -9
$$
MNZ029>031-032-039>041-046>048-054>057-064-230400-
   West Central Minnesota

CITY           SKY/WX    TMP DP  RH WIND       PRES   REMARKS
FERGUS FALLS   CLOUDY    25  19  80 NE6       29.98S WCI  18
WHEATON        CLOUDY    25  21  86 N14G20    30.01S WCI  13
MORRIS         CLOUDY    27  19  74 N18       29.94S WCI  13
ALEXANDRIA     CLOUDY    24  19  81 N15       29.92S WCI  11
ELBOW LAKE     CLOUDY    24  20  83 NE14      29.97R WCI  12
WADENA         CLOUDY    21  18  86 N12G20    29.94F WCI   9
GLENWOOD       MOCLDY    25  21  86 N17       29.90S WCI  11
APPLETON       CLOUDY    28  21  74 N20G25    29.94S WCI  15
BENSON         CLOUDY    27  21  80 NE15G22   29.94R WCI  15
ORTONVILLE     CLOUDY    27  21  80 N18       29.95S WCI  13
MADISON        CLOUDY    30  25  80 N18       29.94S WCI  18
WILLMAR        CLOUDY    27  21  80 N16G23    29.90R WCI  14
$$
MNZ033>034-036-042>043-049>051-058-059-230400-
   Central Minnesota

CITY           SKY/WX    TMP DP  RH WIND       PRES   REMARKS
ST CLOUD       CLOUDY    26  21  81 N16G24    29.85R WCI  14
SAUK CENTRE      N/A     25  20  82 N10G18    29.90R WCI  15
PAYNESVILLE    CLOUDY    28  23  84 N12G22    29.88R WCI  18
AITKIN         CLOUDY    21  16  79 N14       29.89S WCI   8
PINE RIVER     CLOUDY    21  16  79 N14       29.97S WCI   8
BRAINERD       CLOUDY    26  18  71 N15       29.91S WCI  14
STAPLES        CLOUDY    21  16  79 N13G20    29.93S WCI   9
LONG PRAIRIE   CLOUDY    25  19  80 NW14G21   29.90S WCI  13
LITTLE FALLS   CLOUDY    27  18  69 N7        29.90R WCI  19
LITCHFIELD     CLOUDY    30  25  80 N16G24    29.84S WCI  19
BUFFALO        CLOUDY    28  22  79 N18G25    29.82R WCI  15
MAPLE LAKE     CLOUDY    29  24  81 MISG      29.84R
HUTCHINSON     MOCLDY    29  24  81 N24G31    29.82R WCI  15
$$
MNZ037-044-045-052-053-230400-
   East Central Minnesota

CITY           SKY/WX    TMP DP  RH WIND       PRES   REMARKS
PRINCETON      CLOUDY    28  21  74 N17G23    29.84R WCI  16
MORA           CLOUDY    27  21  80 N9G16     29.85S WCI  17
CAMBRIDGE      FAIR      28  19  69 N14G22    29.82S WCI  17
RUSH CITY      CLOUDY    26  20  80 N15       29.82R WCI  13
MOOSE LAKE     CLOUDY    25  18  74 N10G21    29.85S WCI  15
HINCKLEY       CLOUDY    27  21  80 N17G24    29.83S WCI  14
CLOQUET        CLOUDY    21  14  73 N13G18    29.86S WCI   9
MCGREGOR       CLOUDY    25  19  80 N14G25    29.89F WCI  13
$$
MNZ071>073-080-081-089-090-097-098-230400-
   Southwest Minnesota

CITY           SKY/WX    TMP DP  RH WIND       PRES   REMARKS
MONTEVIDEO     CLOUDY    28  21  74 NE22      29.91  WCI  15
GRANITE FALLS  CLOUDY    30  24  78 NW23      29.90R WCI  17
CANBY          CLOUDY    28  24  84 NW14G22   29.94R WCI  17
MARSHALL       CLOUDY    27  23  85 N25G32    29.87R WCI  12
REDWOOD FALLS  CLOUDY    29  23  78 N14G24    29.84R WCI  18
OLIVIA         CLOUDY    30  25  80 N18       29.85R WCI  18
PIPESTONE      CLOUDY    25  21  86 N20G30    29.86R WCI  11
WINDOM         CLOUDY    28  16  59 NW26      29.79R HAZE    WCI  13
WORTHINGTON    LGT SNOW  26  24  92 N33G39    29.80R FOG     WCI   9
JACKSON        CLOUDY    28  27  93 N22G33    29.77R WCI  15
TRACY          CLOUDY    28  25  87 N20G28    29.85R WCI  15
SLAYTON        CLOUDY    26  23  91 N25G32    29.83R WCI  10
$$
MNZ065>067-074>077-082>085-091>093-230400-
   South Central Minnesota

CITY           SKY/WX    TMP DP  RH WIND       PRES   REMARKS
MANKATO        LGT SNOW  27  25  93 N23       29.77R FOG     WCI  12
NEW ULM          N/A     28  25  86 N13G21    29.79S WCI  18
ST JAMES         N/A     28  27  93 NW21      29.79R WCI  15
FAIRMONT       LGT SNOW  27  27 100 N24G32    29.75R FOG     WCI  12
GLENCOE        CLOUDY    28  25  86 N17G28    29.79R WCI  16
FARIBAULT      LGT SNOW  27  25  93 N15G21    29.73R WCI  15
OWATONNA         N/A     27  23  86 N20G26    29.70R WCI  13
WASECA         CLOUDY    27  23  86 N21G28    29.73R WCI  13
ALBERT LEA     CLOUDY    27  25  93 N21G29    29.66R FOG     WCI  13
$$
MNZ078>079-086>088-094>096-230400-
   Southeast Minnesota

CITY           SKY/WX    TMP DP  RH WIND       PRES   REMARKS
ROCHESTER      CLOUDY    28  26  92 N22G31    29.63R WCI  14
RED WING       LGT SNOW  28  21  74 N12G20    29.70R WCI  18
STANTON        LGT SNOW  28  25  89 N14       29.71R WCI  16
DODGE CENTER   LGT SNOW  27  25  93 N14       29.65R WCI  15
WINONA         CLOUDY    34  30  86 N7        29.62R WCI  28
AUSTIN         CLOUDY    27  25  93 N14G22    29.64R WCI  15
PRESTON        CLOUDY    29  27  92 N14G20    29.59R WCI  19
$$
ABBREVIATIONS USED IN REMARKS
   TC - TEMPERATURES IN CELSIUS
  WCI - WIND CHILL INDEX
   HX - HEAT INDEX
  VSB - VISIBILITY
$$



USA.gov is the U.S. government's official web portal to all federal, state and local government web resources and services.